#timestamp,LO_Frequency,Hit,StdDev 
1525665615.3,286047005.2,N
1525665635.1,286047006.6,Y
1525665655.9,286047000.1,P
1525665675.7,286046999.4,N
1525665695.5,286046999.7,N
1525665715.4,286047000.4,N
1525665735.2,286047000.8,N
1525665755.0,286046998.6,N
1525665755.9,286046998.6,N
1525665775.8,286047000.3,N
1525665795.6,286047002.3,N
1525665815.5,286047002.3,N
1525665835.3,286047000.0,N
1525665855.1,286047002.7,N
1525665875.9,286047002.6,N
1525665895.7,286047003.8,N
1525665915.6,286047001.4,N
1525665935.4,286047002.4,N
1525665955.2,286047000.4,N
1525665975.1,286046998.7,N
1525665976.0,286046998.7,N
1525665995.8,286046997.4,N
1525666015.6,286047000.0,N
1525666035.5,286047001.0,N
1525666055.3,286047000.2,N
1525666075.1,286047000.2,N
1525666095.9,286047000.0,N
1525666115.7,286047000.9,N
1525666135.6,286046999.8,N
1525666155.4,286046999.7,N
1525666175.2,286046999.3,N
1525666195.1,286046996.9,N
1525666196.0,286046996.9,N
1525666215.8,286046998.7,N
1525666235.7,286047001.3,N
1525666255.5,286047001.9,N
1525666275.3,286046999.6,N
1525666295.2,286046998.1,N
1525666315.9,286047001.6,N
1525666335.7,286047002.6,N
1525666355.6,286046999.7,N
1525666375.4,286047001.7,N
1525666395.3,286046998.1,N
1525666415.1,286047000.8,N
1525666416.0,286047000.8,N
1525666435.8,286047002.3,N
1525666455.7,286047001.9,N
1525666475.5,286047000.9,N
1525666495.3,286047000.5,N
1525666515.2,286047000.4,N
1525666535.0,286047001.2,N
1525666535.9,286047001.2,N
1525666555.8,286046996.5,N
1525666575.6,286046998.4,N
1525666595.4,286046998.1,N
1525666615.3,286046998.8,N
1525666635.1,286046998.9,N
1525666655.8,286047000.9,N
1525666675.7,286047000.6,N
1525666695.5,286047002.4,N
1525666715.4,286047002.0,N
1525666735.2,286047001.5,N
1525666755.0,286047002.4,N
1525666755.9,286047002.4,N
1525666775.8,286047001.5,N
1525666795.6,286047002.7,N
1525666815.4,286046999.1,N
1525666835.3,286047000.8,N
1525666855.1,286046997.8,N
1525666875.9,286046998.4,N
1525666895.7,286046999.0,N
1525666915.5,286047000.4,N
1525666935.4,286047001.6,N
1525666955.2,286047004.1,N
1525666975.0,286047003.4,N
1525666976.0,286047003.4,N
1525666995.8,286047002.3,N
1525667015.6,286047002.2,N
1525667035.5,286046999.1,N
1525667055.3,286046996.9,N
1525667075.1,286046998.1,N
1525667095.9,286046999.1,N
1525667115.7,286046995.8,N
1525667135.6,286046998.5,N
1525667155.4,286047002.7,N
1525667175.2,286046999.4,N
1525667195.1,286047000.8,N
1525667196.0,286047000.8,N
1525667215.8,286047002.8,N
1525667235.7,286047003.6,N
1525667255.5,286047001.6,N
1525667275.3,286047001.5,N
1525667295.2,286047000.2,N
1525667315.0,286047002.0,N
1525667315.9,286047002.0,N
1525667335.8,286047000.3,N
1525667355.6,286047000.2,N
1525667375.4,286046999.7,N
1525667395.3,286047000.8,N
1525667415.1,286046999.0,N
1525667435.8,286046997.7,N
1525667455.7,286046997.6,N
1525667475.5,286046997.5,N
1525667495.4,286046998.8,N
1525667515.2,286047000.9,N
1525667535.0,286047000.0,N
1525667535.9,286047000.0,N
1525667555.8,286046999.9,N
1525667575.6,286047001.5,N
1525667595.4,286047000.4,N
1525667615.3,286047000.2,N
1525667635.1,286046998.7,N
1525667655.9,286046999.5,N
1525667675.7,286047001.2,N
1525667695.5,286046999.9,N
1525667715.4,286046998.6,N
1525667735.2,286047002.3,N
1525667755.0,286047002.1,N
1525667755.9,286047002.1,N
1525667775.8,286047002.2,N
1525667795.6,286047001.6,N
1525667815.5,286046999.8,N
1525667835.3,286047000.8,N
1525667855.1,286047002.3,N
1525667875.9,286047002.4,N
1525667895.7,286046999.7,N
1525667915.5,286047002.2,N
1525667935.4,286047002.6,N
1525667955.2,286046998.2,N
1525667975.1,286046999.9,N
1525667976.0,286046999.9,N
1525667995.8,286047000.0,N
1525668015.6,286047000.0,N
1525668035.5,286047002.1,N
1525668055.3,286047002.0,N
1525668075.1,286047000.2,N
1525668095.9,286047001.9,N
1525668115.7,286047003.7,N
1525668135.6,286047005.3,Y
1525668155.4,286047003.8,P
1525668175.2,286047004.3,N
1525668195.1,286047005.9,P
1525668196.0,286047005.9,Y
1525668215.8,286047002.5,P
1525668235.7,286046996.7,P
1525668255.5,286046999.2,N
1525668275.3,286046994.9,N
1525668295.2,286046999.4,N
1525668315.0,286046999.0,N
1525668315.9,286046999.0,N
1525668335.8,286047000.6,N
1525668355.6,286046995.7,N
1525668375.4,286046994.6,N
1525668395.3,286046995.0,N
1525668415.1,286046994.3,N
1525668435.8,286046996.1,N
1525668455.7,286046998.0,N
1525668475.5,286046995.4,N
1525668495.4,286046996.7,N
1525668515.2,286046996.7,N
1525668535.0,286046997.8,N
1525668535.9,286046997.8,N
1525668555.8,286046996.4,N
1525668575.6,286046997.9,N
1525668595.4,286046995.1,N
1525668615.3,286047002.8,N
1525668635.1,286046998.6,N
1525668655.9,286047000.5,N
1525668675.7,286046996.9,N
1525668695.5,286046996.5,N
1525668715.4,286046993.9,N
1525668735.2,286046996.2,N
1525668755.0,286046996.7,N
1525668755.9,286046996.7,N
1525668775.8,286047000.3,N
1525668795.6,286046998.8,N
1525668815.5,286046996.7,N
1525668835.3,286046995.0,N
1525668855.1,286046995.1,N
1525668875.9,286046997.7,N
1525668895.7,286046997.9,N
1525668915.6,286046994.2,Y
1525668935.4,286046999.6,P
1525668955.2,286047000.7,N
1525668975.1,286046998.4,N
1525668976.0,286046998.4,N
1525668995.8,286046998.6,N
1525669015.6,286046999.6,N
1525669035.5,286046996.6,Y
1525669055.3,286046998.9,P
1525669075.2,286047002.0,P
1525669095.9,286047004.0,N
1525669115.7,286047004.3,N
1525669135.6,286047004.3,N
1525669155.4,286046998.8,N
1525669175.3,286047000.1,N
1525669195.1,286047002.2,N
1525669196.0,286047002.2,N
